Location: Poughquag
(41.6090°N, 73.6820°W)
Time: 10:49:15
(UTC-04:00)

Tiros 1 - Pass Details

Date: 30 May 2020
Orbit: 630 x 664 km, 48.4° (Epoch: 06 July)

Event Time Altitude Azimuth Distance (km) Brightness Sun altitude
Rises 13:10:56 0° 226° (SW) 2,967 10.8 69.9°
Reaches altitude 10° 13:13:19 10° 221° (SW) 2,053 10.2 69.8°
Maximum altitude 13:17:56 55° 145° (SE) 781 9.0 69.6°
Drops below altitude 10° 13:22:31 10° 68° (ENE) 2,040 9.7 69.3°
Sets 13:24:53 0° 64° (ENE) 2,946 10.4 69.2°
